Погода в Солсбери

Великобритания     51°04′19″N   1°48′02″W
темп.,
°C
ветер,
м/с
пор.,
м/с
влажн.,
%
обл.,
%
осадки,
мм/ч
давл.,
гПа
погр.,
м
27 сентября, пн
пн2701:00+13ю51594100 0.0 1009458
04:00+15ююз71696100 0.8 1006790
07:00+14ююз101795100 5.3 10031096
10:00+13з814847 0.9 1009974
13:00+16зюз911592 1.2 10121532
16:00+16зюз810561 0.4 10141667
19:00+12зюз48740 0.6 1016212
22:00+10юз411917 0.0 1019287
28 сентября, вт
вт2801:00+9ююз311945 0.0 1020306
04:00+8ю389594 0.0 1020158
07:00+11ю41190100 0.1 1019398
10:00+13ююз51183100 0.1 1018588
13:00+16ююз81267100 0.2 10171215
16:00+16ююз8126519 0.0 10151168
19:00+12ю61486100 0.1 1013460
22:00+11ю81596100 4.3 1010896
29 сентября, ср
ср2901:00+9зсз1321846 8.9 10091082
04:00+9з815866 0.0 1014942
07:00+8зсз816815 0.0 1017809
10:00+11зсз914720 0.0 10201304
13:00+13зсз9135017 0.0 10222011
16:00+14з812545 0.0 10241857
19:00+10з6126732 0.0 1026556
22:00+8зюз3108132 0.0 1027224
30 сентября, чт
чт3001:00+7зюз41082100 0.0 1026236
04:00+8юз5138695 0.0 1025371
07:00+10юз61381100 0.0 1024547
10:00+11ююз71583100 0.1 1023792
13:00+12юз91785100 0.3 1021840
16:00+13юз101889100 0.2 1018837
19:00+13юз91893100 1.9 1017749
22:00+13юз91795100 0.4 1016746
1 октября, пт
пт101:00+13ююз91897100 0.4 1013735
04:00+13юз91697100 0.1 1011899
07:00+14юз91694100 0.3 1009983
10:00+13з51291100 7.2 1009819
13:00+12з61077100 8.4 10111233
16:00+13з6106410 0.2 10101472
19:00+10зюз49722 0.2 1011225
22:00+9юз6137621 0.0 1011602